This is the latest recevied weather packets stored in our database for station/object EFTU. If no packets are shown the sender has not sent any weather packets the latest 10 day(s).
| Time | Temp. | Humidity | Pressure | Rain* | Wind** | Luminosity | Snow |
|---|---|---|---|---|---|---|---|
| 1777819632 | 12.78° C | 41% | 1008.8 hPa | - | - | - | - |
| 1777818432 | 12.78° C | 43% | 1008.8 hPa | - | - | - | - |
| 1777817232 | 12.78° C | 46% | 1008.9 hPa | - | - | - | - |
| 1777816032 | 12.78° C | 48% | 1009.1 hPa | - | - | - | - |
| 1777814832 | 12.78° C | 49% | 1008.9 hPa | - | - | - | - |
| 1777813631 | 12.78° C | 50% | 1009 hPa | - | - | - | - |
| 1777812432 | 13.33° C | 50% | 1009.1 hPa | - | - | - | - |
| 1777811232 | 13.33° C | 51% | 1009 hPa | - | - | - | - |
| 1777810031 | 13.33° C | 55% | 1009.2 hPa | - | - | - | - |
| 1777808832 | 12.78° C | 55% | 1009.1 hPa | - | - | - | - |
| 1777807631 | 12.78° C | 57% | 1009.1 hPa | - | - | - | - |
| 1777806431 | 13.89° C | 56% | 1009 hPa | - | - | - | - |
| 1777805237 | 12.78° C | 58% | 1009 hPa | - | - | - | - |
| 1777804031 | 12.22° C | 59% | 1009 hPa | - | - | - | - |
| 1777802832 | 12.78° C | 62% | 1008.9 hPa | - | - | - | - |
| 1777801631 | 12.22° C | 65% | 1009.2 hPa | - | - | - | - |
| 1777800431 | 11.67° C | 67% | 1009.2 hPa | - | - | - | - |
| 1777799231 | 11.11° C | 69% | 1009.1 hPa | - | - | - | - |
| 1777798031 | 10° C | 73% | 1009.1 hPa | - | - | - | - |
| 1777796831 | 10° C | 77% | 1009 hPa | - | - | - | - |
| 1777795631 | 9.44° C | 80% | 1008.9 hPa | - | - | - | - |
| 1777794430 | 8.89° C | 80% | 1008.7 hPa | - | - | - | - |
| 1777793230 | 8.89° C | 87% | 1008.6 hPa | - | - | - | - |
| 1777792030 | 8.33° C | 88% | 1008.3 hPa | - | - | - | - |
| 1777790830 | 8.33° C | 93% | 1008.1 hPa | - | - | - | - |
* Rain since midnight (hover to see other rain measurements)
** Current wind speed in m/s (hover to see current wind gust speed)